Voltar ao catálogo

COSMOS 416

AtivoMilitarLEO
NORAD 5215·PAYLOAD·🇷🇺 Russia

Lançado May 7, 1971 de Plesetsk Cosmodrome

Loading…

Próximas Passagens (próximas 24 horas)

TLE

AtualizadoSource: Space-Track

Época: Sep 14, 2026, 10:50 UTC

1 05215U 71041F   26257.45190381  .00000009  00000-0  15270-3 0  9996
2 05215  74.0162 155.0201 0077958 257.3470 276.7858 12.58072766542012

Acompanhe COSMOS 416 em tempo real com AllMySat

Download on the App Store